Location: Freemans Gardens
(41.6414°N, 83.6077°W)
Time: 03:47:58
(UTC+00:00)

Cosmos 2058 Rocket - Pass Details

Date: 29 October 2020
Orbit: 610 x 639 km, 82.5° (Epoch: 26 November)

Event Time Altitude Azimuth Distance (km) Brightness Sun altitude
Rises 23:07:24 0° 177° (S) 2,913 6.6 -7.2°
Reaches altitude 10° 23:09:38 10° 174° (S) 2,014 5.8 -7.6°
Maximum altitude 23:14:02 61° 95° (E) 727 3.1 -8.4°
Drops below altitude 10° 23:18:30 10° 15° (NNE) 2,039 5.5 -9.2°
Sets 23:20:47 0° 12° (NNE) 2,953 6.3 -9.6°
